Find Kuiper-00213

NORAD ID: 67777 Int'l Des: 2026-030 Owner: KUIP Country: US Constellation: amazon-leo operational
LEOCIRCULAR

リアルタイム位置

3D地球を読み込み中...

Kuiper-00213について

説明を読み込み中...

次回通過

Passes for default location (London). Set your location on the main map for personalized predictions.

高度履歴

Loading altitude history...

軌道要素

1 67777U 26030P 26135.31165916 .00001945 00000-0 28378-3 0 9994
2 67777 51.8971 271.1012 0001440 36.1804 323.9255 14.79980872 15147
Epoch: May 15, 2026 • Age: 15 hours

現在のステータス

高度 631.2 km
速度 7.55 km/s
衛星直下点 30.11°N, 152.74°W
打ち上げ日 Feb 12, 2026
運用期間 0.2 years
タイプ internet

技術仕様

分類 Payload
質量 490.00 kg
乾燥質量 490.00 kg
総質量 490.00 kg
長さ 1.80 m
直径 0.70 m
スパン 5.00 m
形状 Box + 2 pan
製造者 KUIP
バスタイプ Kuiper
フェーズステータス In Orbit
所有者/国 KUIP/US

Most Searched